Location: Unspecified
(0.0000°N, 1.0000°E)
Time: 06:19:07
(UTC+01:00)

N. Korean satellite - Visible Passes

Search period start: 18 January 2022 00:00
Search period end: 28 January 2022 00:00
Orbit: 446 x 492 km, 97.3° (Epoch: 17 January)

Date Brightness Start Highest point End Pass type
(mag) Time Alt. Az. Time Alt. Az. Time Alt. Az.
18 Jan 7.3 06:13:06 10° NNW 06:16:19 31° W 06:19:34 10° SW visible
19 Jan 6.6 05:43:43 10° NNE 05:47:19 78° E 05:50:56 10° S visible
20 Jan 8.9 05:15:21 10° NE 05:18:18 24° E 05:21:15 10° SSE visible
21 Jan 7.6 06:19:09 10° NNW 06:22:08 25° W 06:25:08 10° SW visible
22 Jan 6.4 05:49:29 10° N 05:53:05 82° W 05:56:41 10° SSW visible
23 Jan 8.5 05:20:51 10° NE 05:24:01 29° E 05:27:11 10° SSE visible
24 Jan 7.9 06:25:07 10° NNW 06:27:48 20° W 06:30:29 10° SW visible
25 Jan 6.4 05:55:09 10° N 05:58:42 64° WNW 06:02:14 10° SSW visible
26 Jan 8.1 05:26:15 10° NNE 05:29:34 36° E 05:32:53 10° S visible
27 Jan 9.9 04:58:54 10° ENE 05:00:26 12° E 05:01:58 10° SE visible
27 Jan 8.1 06:31:00 10° NW 06:33:18 16° WNW 06:35:35 10° WSW visible
